EHI
3 23 47 39 14 2 0 0 0 0 0 0 0 0 0 0 0 0 0 0 0 0 0 0 0 0 0 0 0 0 0 0 0 0 0 0 0 0 0 1 0 0 0
6 25 50 46 20 5 1 0 0 0 0 0 0 0 0 0 0 0 0 0 0 0 0 0 0 0 0 0 0 0 0 0 0 0 0 0 0 0 1 2 1 0 0
12 25 49 53 32 12 3 1 0 0 0 0 0 0 0 0 0 0 0 0 0 0 0 0 0 0 0 0 0 0 0 0 0 0 0 0 0 0 1 3 2 1 1
14 23 45 60 46 22 8 3 1 0 0 0 0 0 0 0 0 0 0 0 0 0 0 0 0 0 0 0 0 0 0 0 0 0 0 0 0 0 1 3 3 2 2
10 21 47 68 60 35 16 6 1 0 0 0 0 0 0 0 0 0 0 0 0 0 0 0 0 0 0 0 0 0 0 0 0 0 0 0 0 0 2 3 3 3 3
8 21 50 74 70 48 26 11 3 0 0 0 0 0 0 0 0 0 0 0 0 0 0 0 0 0 0 0 0 0 0 0 0 0 0 0 0 3 9 12 9 6 4
10 20 47 75 78 59 35 17 8 3 1 0 0 0 0 0 0 0 0 0 0 0 0 0 0 0 0 0 0 0 0 0 0 0 0 0 0 7 22 30 27 18 13
10 17 38 65 74 63 43 25 14 7 3 1 0 0 0 0 0 0 0 0 0 0 0 0 0 0 0 0 0 0 0 0 0 0 0 0 1 11 34 51 49 38 31
7 11 24 40 52 53 43 30 20 13 7 3 1 0 0 0 0 0 0 0 0 0 0 0 1 1 0 0 0 0 0 0 0 0 0 0 1 13 41 65 68 58 53
4 8 14 21 28 33 33 29 24 18 11 6 2 0 0 0 0 0 0 0 0 1 1 2 2 2 1 1 2 2 1 0 0 0 0 0 1 13 42 72 81 76 72
4 7 13 17 18 20 22 25 24 20 13 6 2 0 0 0 0 0 0 1 2 2 4 7 7 5 3 2 4 4 2 2 2 1 0 1 2 12 41 74 88 85 81
7 8 14 18 17 16 17 19 20 18 10 4 1 1 1 0 0 0 0 2 3 4 6 10 11 7 3 2 3 3 2 3 4 2 1 2 6 17 45 76 88 85 82
17 13 13 15 15 11 10 11 14 14 8 4 3 2 2 1 0 0 0 1 2 3 5 7 8 6 3 1 1 0 0 2 3 2 1 4 12 27 53 78 87 83 79
32 25 16 13 10 6 4 4 7 8 7 6 4 3 3 2 1 0 0 0 2 5 7 6 4 3 2 1 1 1 1 1 2 1 1 7 19 38 62 81 86 82 78
49 40 28 20 11 5 3 3 4 4 5 5 4 5 6 7 5 2 0 1 5 12 14 10 5 2 1 1 1 2 3 3 3 3 3 8 24 45 67 81 84 81 77
62 57 48 37 25 20 19 19 18 15 12 11 10 12 19 23 20 12 6 7 15 22 22 15 7 4 3 2 2 3 4 4 3 4 3 7 20 40 61 73 75 75 75
68 70 68 59 51 49 51 52 49 44 36 30 27 30 39 47 45 36 26 25 31 34 30 21 12 9 9 7 6 6 4 3 3 4 3 4 10 24 41 51 55 60 64
69 76 80 76 74 75 76 76 75 69 60 50 44 45 53 61 64 61 54 49 50 48 41 29 19 15 15 14 12 8 5 3 3 3 3 2 3 9 17 25 31 37 40
70 76 81 81 82 84 84 82 79 75 67 55 46 46 52 61 69 73 73 70 66 61 53 40 28 22 21 19 15 9 4 2 2 2 1 1 1 2 4 8 14 17 17
68 72 75 76 78 82 83 79 76 72 63 52 43 38 42 54 65 73 78 78 73 67 59 48 36 27 22 17 12 7 2 1 0 0 0 0 0 0 1 3 5 6 5
59 62 66 68 71 74 76 74 72 69 63 55 47 38 35 43 57 67 75 76 72 67 60 49 39 28 18 12 7 3 1 0 0 0 0 0 0 0 0 1 2 2 2
45 47 52 56 58 60 61 61 61 61 60 58 53 44 38 40 49 58 65 68 68 64 58 48 38 29 18 9 4 1 0 0 0 0 0 0 0 0 0 0 1 2 2
33 34 36 40 43 41 40 43 45 48 50 51 49 44 39 40 45 49 54 59 63 62 57 49 39 30 20 9 4 2 0 0 0 0 0 0 0 0 0 0 0 1 1
29 28 28 29 29 26 24 26 29 32 35 34 33 31 31 33 37 40 44 48 52 53 52 45 36 29 20 10 5 3 1 0 0 0 0 0 0 0 0 0 0 0 0
25 25 24 23 23 19 15 14 14 15 16 15 15 16 17 19 22 25 30 35 38 40 40 35 30 26 20 12 7 5 2 0 0 0 0 0 0 0 0 0 0 0 0
22 22 22 22 20 15 10 6 5 5 4 4 6 7 8 9 10 14 19 25 29 32 31 27 24 24 20 13 9 6 3 1 0 0 0 0 0 0 0 0 0 0 0
Wind_Speed
10 12 19 20 18 17 16 15 15 15 15 15 14 14 14 14 14 13 13 12 12 12 12 11 11 11 12 12 12 12 12 11 11 11 11 11 10 9 9 11 11 8 11
13 14 19 20 19 17 16 15 15 14 14 14 14 13 13 13 12 12 12 11 11 11 10 10 10 10 10 10 10 10 9 9 9 9 9 8 8 8 8 11 11 7 10
16 13 17 19 19 17 16 15 15 14 14 14 13 13 12 12 11 11 10 10 10 10 9 9 8 8 8 8 7 7 6 6 5 6 6 3 4 7 9 11 11 10 10
16 12 15 20 19 17 16 15 15 14 14 13 13 12 12 11 10 10 9 9 9 8 8 8 7 7 6 5 5 4 3 2 2 2 2 3 3 7 9 11 11 10 9
14 10 15 21 20 18 16 15 15 14 14 13 13 12 12 11 10 10 9 8 8 8 7 7 6 6 5 4 3 2 2 2 3 3 2 3 4 8 10 11 12 11 10
12 10 15 21 20 18 17 16 15 14 14 13 13 12 12 11 10 10 9 8 8 7 7 7 6 6 6 5 5 5 5 5 4 3 4 5 5 11 14 13 13 12 11
12 9 13 20 20 18 17 16 15 15 14 13 13 12 12 11 11 10 10 9 8 8 7 7 7 7 7 7 7 7 7 8 5 4 4 4 5 12 16 15 15 14 13
16 11 12 20 20 19 17 16 16 15 14 14 13 12 12 11 11 10 10 10 9 9 8 8 8 8 8 8 8 9 9 9 7 5 3 4 8 14 17 16 16 15 15
15 13 10 11 14 18 18 17 16 15 14 14 13 13 12 12 11 11 11 11 11 11 11 10 10 10 10 10 10 10 11 12 7 5 7 4 7 13 18 17 16 16 15
12 11 10 9 8 9 11 16 17 16 15 15 14 14 13 13 12 12 11 11 13 13 13 13 13 13 12 11 12 12 13 12 6 6 5 7 11 13 17 18 17 16 16
11 10 10 10 8 8 8 13 14 15 15 14 13 15 13 6 6 7 11 14 15 15 15 15 14 14 13 12 14 14 12 5 5 6 6 11 14 15 17 18 18 17 16
13 12 11 11 10 9 9 8 6 7 7 8 6 7 6 5 6 8 10 17 17 17 17 17 16 14 11 6 9 12 6 7 6 6 7 15 16 17 18 19 18 17 16
15 14 12 12 11 10 7 6 5 4 5 6 7 7 6 5 5 6 5 8 11 14 10 9 10 7 6 6 5 6 7 6 5 6 8 15 17 18 19 19 18 17 16
14 15 14 13 12 11 8 6 6 5 5 6 8 9 7 5 6 6 5 6 6 5 6 6 5 7 8 8 8 8 8 6 6 5 7 15 16 17 18 18 18 17 17
15 15 15 13 13 11 9 6 8 7 7 8 8 9 10 8 7 7 6 6 7 6 6 6 7 8 8 8 8 9 9 9 8 7 6 13 15 15 17 19 19 19 18
14 14 14 14 13 11 9 8 7 8 7 7 8 10 12 9 8 7 6 6 6 6 7 7 8 7 7 6 7 8 7 7 7 7 6 7 13 15 18 19 19 19 18
9 10 12 14 12 11 10 10 8 7 7 7 8 10 11 11 10 8 7 6 6 6 6 6 7 5 5 6 6 6 5 5 4 5 5 4 5 11 16 18 19 18 18
4 5 8 10 10 10 8 7 5 5 5 5 5 6 10 12 11 9 7 7 6 5 5 5 4 4 4 4 4 4 4 4 5 5 4 4 4 5 9 16 18 19 19
4 4 4 3 5 6 4 2 3 3 3 3 3 4 6 9 10 8 7 6 6 5 5 5 4 4 4 5 5 5 4 4 4 5 5 5 5 5 5 9 15 16 18
6 5 3 2 1 1 1 1 3 5 4 3 3 4 5 5 7 7 6 7 6 4 4 4 5 4 4 4 5 5 4 4 4 5 6 5 5 7 7 7 6 8 14
7 6 4 3 2 1 1 1 3 4 4 4 4 5 5 5 6 6 6 6 5 5 6 6 5 5 4 3 2 3 4 5 6 5 5 5 6 6 5 5 4 4 4
6 5 4 3 2 0 1 2 3 4 4 4 4 5 6 6 6 6 7 6 6 6 7 7 6 4 4 4 4 2 3 4 4 5 3 4 4 3 3 4 3 3 3
6 5 4 3 2 1 1 1 2 2 3 3 3 3 5 6 6 6 7 6 6 7 7 8 8 8 6 4 5 5 4 5 3 3 2 1 2 2 1 1 1 1 2
4 4 4 3 2 1 1 0 1 1 3 4 3 4 5 5 6 6 6 7 7 6 8 8 8 6 6 6 4 5 4 4 3 2 2 1 2 2 1 1 1 1 2
5 5 4 3 2 1 1 0 0 2 3 3 3 5 5 5 5 5 5 5 6 6 7 8 7 7 7 7 5 4 4 4 4 3 3 2 2 1 1 1 1 2 2
4 4 4 4 2 2 1 0 0 2 3 4 5 5 5 4 4 5 5 5 6 6 7 8 8 8 8 8 6 5 5 4 5 4 5 3 2 2 1 0 1 2 2
Wind_Direction
155 157 149 147 145 144 141 137 134 130 126 121 117 114 112 110 109 109 109 109 110 110 110 110 109 108 108 108 109 112 116 119 121 121 119 116 111 107 110 118 114 108 109
151 154 148 148 148 147 145 142 140 138 134 131 128 125 123 121 118 117 117 115 114 114 113 113 113 113 112 112 113 116 120 122 123 123 123 122 118 107 109 131 123 123 119
145 149 147 147 148 149 148 147 146 145 143 140 138 136 135 133 131 128 126 124 123 122 121 120 119 117 117 117 117 118 118 118 123 130 133 134 136 130 123 128 132 131 129
144 147 148 148 149 149 150 151 152 151 150 149 148 147 147 146 144 142 139 137 135 133 133 133 131 130 129 129 130 130 130 131 144 169 173 193 191 165 154 146 146 145 144
142 146 152 149 150 152 153 156 158 158 158 158 158 158 157 157 158 156 155 154 152 150 149 148 148 151 154 161 173 193 213 227 241 249 255 235 223 195 183 168 162 161 162
143 148 154 152 152 154 157 160 163 164 165 165 165 166 166 167 169 169 169 170 170 170 170 169 172 176 182 192 208 229 246 256 260 246 253 250 221 205 197 186 177 175 177
145 151 156 155 156 158 161 164 167 169 171 172 172 173 174 176 177 178 179 181 184 187 189 189 192 195 202 211 221 235 250 263 262 242 240 242 216 206 203 197 189 185 187
151 154 158 160 160 162 165 168 171 174 176 178 180 182 183 185 187 187 188 190 193 198 202 205 207 209 214 220 227 235 246 259 268 271 259 239 226 216 212 205 198 194 194
153 157 161 164 166 168 170 173 176 179 181 184 187 189 191 193 195 197 198 200 204 208 212 215 219 222 225 227 231 237 244 252 256 263 273 264 245 226 219 212 206 204 202
156 162 164 165 166 168 172 178 181 184 187 190 193 196 199 201 203 206 206 210 213 216 219 222 225 228 231 233 236 241 246 252 248 251 260 262 259 237 225 219 213 211 210
162 170 170 170 170 170 174 185 186 190 194 196 200 203 204 208 210 214 217 218 222 224 225 227 230 234 236 239 242 246 251 240 234 246 250 256 256 244 232 225 219 216 215
172 179 179 178 177 175 184 184 187 194 197 199 200 206 203 203 214 220 228 228 229 230 231 232 234 237 240 239 245 249 246 238 234 242 246 250 252 248 238 229 223 219 219
177 179 182 183 182 182 190 181 190 199 199 207 208 210 210 210 220 227 227 236 235 235 234 235 235 234 232 231 233 235 241 240 234 237 244 249 251 250 239 227 222 222 223
177 185 182 183 184 190 191 187 190 199 202 209 215 214 211 215 221 224 226 227 225 224 222 224 227 232 236 237 237 240 241 236 233 232 242 249 250 246 233 223 221 223 225
182 186 184 184 187 190 192 192 194 203 208 211 212 214 213 214 221 224 226 224 221 214 214 220 227 234 237 239 238 239 240 238 238 236 245 252 246 236 229 225 225 225 227
185 186 182 186 190 188 190 193 197 203 212 212 214 216 214 216 221 224 226 221 217 212 214 217 223 227 230 232 235 237 238 239 241 243 244 252 245 235 230 230 230 228 229
180 176 182 188 189 191 192 193 196 199 205 212 217 218 216 215 217 220 223 220 214 208 208 214 222 222 228 232 239 243 242 241 243 248 251 247 251 244 238 237 238 235 233
141 159 175 190 191 197 202 201 199 203 205 212 218 219 219 218 217 217 219 220 212 203 201 207 210 219 230 231 235 242 242 245 253 256 255 251 251 259 251 248 246 242 239
119 133 150 163 184 200 207 240 256 245 236 236 236 234 228 225 222 217 219 220 208 203 204 215 209 206 221 226 231 236 235 238 249 263 259 254 249 248 249 255 250 247 246
97 105 109 92 126 161 166 238 270 273 264 257 250 250 244 234 229 221 224 222 209 207 213 216 217 212 218 219 238 247 240 240 243 246 252 254 247 245 245 245 245 249 248
79 80 83 80 61 97 187 217 249 264 265 261 252 249 250 244 235 225 230 225 216 218 221 217 213 220 229 207 220 273 276 249 246 244 243 247 247 246 240 236 230 228 242
101 96 91 96 97 118 226 222 229 242 252 248 256 261 257 255 251 242 230 226 220 221 225 221 214 216 224 194 186 202 286 302 272 248 238 242 253 254 256 252 233 222 221
110 120 124 129 127 153 235 264 286 292 297 304 294 282 274 269 263 257 247 236 228 221 229 227 218 215 225 220 194 178 195 235 275 289 258 242 274 270 260 287 282 264 214
139 143 139 137 130 136 109 50 308 289 286 284 286 286 289 281 274 265 255 244 236 231 233 233 226 216 214 225 217 212 205 184 197 276 296 264 244 239 230 249 271 232 201
162 157 151 147 150 153 106 104 305 291 278 290 303 307 302 294 285 281 272 264 255 244 238 235 230 220 214 217 208 200 210 215 205 204 257 283 298 272 240 214 186 205 184
167 158 155 152 167 162 132 85 345 304 308 316 317 316 312 306 300 298 290 271 260 252 245 239 232 227 222 219 213 200 189 189 198 196 221 232 246 268 279 199 152 179 160